Change the Weather History Date:

Thursday, December 13, 2012

  Actual Average Record
Temperature  
Mean Temperature 44 °F -  
Max Temperature 53 °F 57 °F 76 °F (1956)
Min Temperature 35 °F 35 °F 3 °F (1958)
Degree Days  
Heating Degree Days 21    
Moisture  
Dew Point 35 °F    
Average Humidity 79    
Maximum Humidity 89    
Minimum Humidity 57    
Precipitation  
Precipitation 0.30 in - - ()
Sea Level Pressure  
Sea Level Pressure 30.33 in    
Wind  
Wind Speed 11 mph (North)    
Max Wind Speed 14 mph    
Max Gust Speed 25 mph    
Visibility 9 miles    
Events Rain    
Averages and records for this station are not official NWS values.
T = Trace of Precipitation, MM = Missing Value Source: NWS Daily Summary

Daily Weather History Graph

Daily Weather History Graph

Search for Another Location

Airport or City:

Trip Planner

Search our weather history database for the weather conditions in past years. The results will help you decide how hot, cold, wet, or windy it might be!

Date:

Astronomy

Dec. 13, 2012 Rise Set
Actual Time 7:13 AM EST 4:58 PM EST
Civil Twilight 6:44 AM EST 5:27 PM EST
Nautical Twilight 6:12 AM EST 5:59 PM EST
Astronomical Twilight 5:41 AM EST 6:30 PM EST
Moon 7:20 AM EST (12/13) 5:38 PM EST (12/13)
Length of Visible Light 10h 42m
Length of Day
9h 45m
New Moon, 0% of the Moon is Illuminated
Dec 13
New Moon
Dec 20
First Quarter
Dec 28
Full
Jan 4
Last Quarter
Jan 11
New

Hourly Weather History & Observations

Time (EST) Temp. Windchill Dew Point Humidity Pressure Visibility Wind Dir Wind Speed Gust Speed Precip Events Conditions
12:53 AM 39.0 °F 31.8 °F 36.0 °F 89% 30.30 in 6.0 mi North 11.5 mph - 0.06 in Rain Light Rain
1:04 AM 39.2 °F 32.5 °F 35.6 °F 87% 30.30 in 7.0 mi North 10.4 mph - 0.02 in Rain Light Rain
1:37 AM 39.2 °F 31.2 °F 35.6 °F 87% 30.27 in 9.0 mi NNE 13.8 mph - 0.03 in Rain Light Rain
1:53 AM 39.0 °F 32.3 °F 35.1 °F 86% 30.28 in 8.0 mi NNE 10.4 mph - 0.04 in Rain Light Rain
2:53 AM 39.0 °F 31.4 °F 35.1 °F 86% 30.30 in 5.0 mi North 12.7 mph 25.3 mph 0.10 in Rain Rain
3:53 AM 37.9 °F 29.6 °F 35.1 °F 89% 30.29 in 5.0 mi North 13.8 mph - 0.07 in Rain Light Rain
4:53 AM 39.0 °F 31.0 °F 35.1 °F 86% 30.29 in 8.0 mi North 13.8 mph 21.9 mph 0.02 in   Overcast
5:53 AM 39.0 °F 31.0 °F 36.0 °F 89% 30.30 in 8.0 mi North 13.8 mph - N/A   Overcast
6:31 AM 39.2 °F 31.6 °F 35.6 °F 87% 30.31 in 9.0 mi North 12.7 mph - N/A   Overcast
6:53 AM 39.0 °F 31.0 °F 35.1 °F 86% 30.32 in 9.0 mi North 13.8 mph 18.4 mph N/A   Overcast
7:51 AM 39.2 °F 32.0 °F 33.8 °F 81% 30.32 in 8.0 mi North 11.5 mph - N/A   Overcast
7:53 AM 39.9 °F 32.5 °F 34.0 °F 79% 30.32 in 8.0 mi North 12.7 mph - N/A   Overcast
8:53 AM 39.9 °F 32.5 °F 34.0 °F 79% 30.35 in 8.0 mi North 12.7 mph - N/A   Overcast
9:53 AM 42.1 °F 35.2 °F 35.1 °F 76% 30.37 in 9.0 mi North 12.7 mph - N/A   Overcast
10:53 AM 45.0 °F 38.9 °F 36.0 °F 71% 30.37 in 10.0 mi North 12.7 mph - N/A   Overcast
11:53 AM 48.0 °F - 36.0 °F 63% 30.36 in 10.0 mi North 13.8 mph - N/A   Overcast
12:53 PM 51.1 °F - 37.0 °F 59% 30.34 in 10.0 mi NNE 12.7 mph - N/A   Overcast
1:53 PM 52.0 °F - 37.9 °F 59% 30.32 in 10.0 mi North 10.4 mph - 0.01 in   Clear
2:53 PM 53.1 °F - 37.9 °F 57% 30.33 in 10.0 mi North 13.8 mph - N/A   Clear
3:53 PM 52.0 °F - 37.9 °F 59% 30.32 in 10.0 mi NE 9.2 mph - N/A   Partly Cloudy
4:53 PM 46.9 °F - 37.0 °F 68% 30.32 in 10.0 mi NNE 8.1 mph - N/A   Clear
6:53 PM 39.9 °F 36.7 °F 35.1 °F 83% 30.34 in 10.0 mi NNE 4.6 mph - N/A   Clear
8:53 PM 37.9 °F 34.4 °F 33.1 °F 83% 30.36 in 10.0 mi North 4.6 mph - N/A   Clear
9:53 PM 37.0 °F 34.5 °F 33.1 °F 86% 30.37 in 10.0 mi NNE 3.5 mph - N/A   Clear
10:53 PM 35.1 °F 32.2 °F 32.0 °F 89% 30.37 in 10.0 mi NNE 3.5 mph - N/A   Clear
11:53 PM 35.1 °F 32.2 °F 30.9 °F 85% 30.35 in 10.0 mi NE 3.5 mph - N/A   Clear